Temp
2 2 2 1 1 1 0 -0 -0 -0 -1 -0 -0 -0 -0 -0 -1 -1 -2 -2 -2 -2 -3 -3 -3 -3 -4 -4 -3 -3 -3 -4 -3 -4 -4 -4 -4 -4 -4 -4 -4 -3 -3
1 1 1 0 -0 -0 -1 -1 -1 -1 -1 -1 -1 -1 -2 -2 -2 -2 -3 -3 -3 -4 -4 -4 -5 -5 -5 -5 -6 -6 -6 -5 -5 -5 -5 -5 -5 -5 -6 -6 -6 -5 -5
0 -0 -1 -1 -1 -2 -2 -2 -2 -2 -2 -2 -2 -2 -3 -3 -3 -4 -4 -4 -5 -5 -6 -6 -6 -6 -7 -7 -6 -6 -6 -6 -6 -7 -6 -7 -6 -7 -7 -7 -7 -7 -7
-1 -1 -2 -2 -3 -3 -3 -3 -3 -3 -3 -3 -4 -4 -5 -5 -5 -5 -5 -5 -6 -6 -6 -7 -7 -8 -7 -7 -6 -7 -7 -8 -7 -7 -7 -7 -8 -8 -8 -9 -8 -8 -8
-1 -2 -3 -3 -3 -4 -4 -4 -4 -4 -4 -4 -4 -5 -5 -5 -6 -6 -6 -6 -7 -7 -7 -8 -8 -9 -8 -7 -7 -8 -8 -8 -8 -8 -8 -9 -9 -9 -10 -9 -9 -9 -9
-2 -3 -4 -4 -4 -5 -5 -5 -5 -5 -6 -5 -6 -6 -6 -6 -6 -7 -8 -8 -8 -8 -8 -9 -9 -9 -9 -8 -8 -9 -9 -8 -8 -9 -10 -10 -10 -11 -10 -10 -10 -10 -9
-3 -4 -4 -5 -5 -5 -6 -6 -6 -6 -6 -7 -7 -6 -7 -6 -6 -8 -9 -9 -9 -9 -10 -10 -9 -10 -9 -9 -10 -11 -11 -11 -10 -11 -11 -11 -12 -11 -11 -11 -11 -12 -12
-4 -5 -5 -6 -6 -6 -6 -7 -7 -7 -8 -8 -8 -8 -7 -7 -8 -8 -9 -9 -10 -10 -11 -11 -11 -11 -10 -10 -11 -12 -13 -13 -13 -13 -13 -14 -13 -12 -12 -12 -13 -14 -14
-5 -6 -6 -7 -7 -7 -7 -7 -8 -8 -8 -9 -9 -9 -8 -8 -8 -9 -10 -10 -10 -11 -11 -12 -12 -11 -11 -11 -14 -14 -14 -14 -13 -14 -13 -15 -14 -14 -14 -15 -15 -15 -14
-7 -7 -7 -8 -8 -8 -8 -8 -8 -8 -9 -9 -10 -10 -10 -10 -9 -9 -10 -11 -12 -13 -13 -13 -13 -12 -12 -12 -14 -15 -16 -16 -16 -15 -14 -14 -15 -16 -16 -17 -17 -16 -16
-7 -8 -8 -8 -8 -8 -8 -8 -9 -9 -9 -10 -10 -11 -11 -11 -11 -10 -10 -11 -13 -14 -14 -15 -14 -13 -14 -14 -15 -15 -16 -17 -16 -17 -17 -17 -18 -18 -18 -18 -18 -18 -17
-8 -9 -9 -9 -9 -9 -9 -9 -9 -10 -10 -11 -11 -12 -12 -12 -12 -11 -11 -12 -13 -14 -15 -16 -15 -15 -16 -17 -17 -17 -18 -17 -18 -19 -19 -20 -20 -20 -20 -20 -19 -19 -19
-9 -9 -10 -9 -9 -10 -10 -10 -10 -10 -11 -12 -12 -13 -13 -13 -13 -13 -13 -13 -14 -15 -16 -16 -17 -17 -17 -16 -19 -19 -18 -19 -20 -21 -22 -22 -21 -21 -20 -21 -20 -20 -19
-10 -10 -10 -10 -10 -10 -10 -11 -11 -11 -12 -12 -13 -13 -13 -13 -13 -13 -14 -14 -15 -15 -15 -16 -17 -17 -17 -18 -18 -19 -19 -20 -22 -23 -23 -22 -21 -21 -21 -21 -22 -22 -21
-10 -11 -11 -11 -11 -11 -11 -11 -11 -12 -12 -12 -14 -14 -14 -13 -12 -12 -13 -15 -15 -17 -17 -16 -16 -17 -18 -18 -19 -20 -21 -21 -22 -22 -23 -23 -23 -23 -23 -22 -22 -22 -22
-11 -11 -11 -11 -12 -12 -12 -13 -13 -12 -13 -13 -14 -14 -14 -14 -13 -13 -14 -16 -16 -18 -17 -18 -19 -21 -21 -22 -22 -22 -22 -23 -23 -23 -23 -24 -24 -24 -24 -23 -23 -23 -23
-11 -11 -11 -12 -12 -12 -13 -13 -14 -14 -14 -14 -15 -15 -15 -14 -14 -14 -15 -17 -18 -18 -18 -19 -20 -21 -22 -22 -23 -23 -24 -24 -24 -24 -24 -24 -24 -24 -24 -24 -24 -24 -23
-11 -11 -11 -11 -12 -12 -13 -13 -14 -14 -14 -15 -15 -16 -16 -16 -15 -16 -17 -17 -17 -18 -19 -20 -21 -21 -22 -22 -23 -23 -23 -23 -23 -24 -24 -24 -24 -25 -25 -25 -25 -24 -24
-11 -11 -12 -12 -12 -12 -13 -14 -14 -14 -14 -14 -15 -15 -15 -16 -17 -18 -18 -17 -18 -19 -20 -20 -21 -22 -22 -22 -22 -23 -23 -23 -24 -24 -24 -24 -24 -25 -24 -24 -25 -24 -25
-12 -12 -12 -12 -13 -14 -14 -14 -13 -14 -15 -15 -15 -15 -16 -16 -17 -17 -18 -18 -18 -19 -20 -20 -21 -21 -21 -22 -22 -22 -22 -22 -23 -23 -23 -24 -24 -24 -24 -24 -24 -25 -25
-12 -12 -13 -13 -13 -13 -13 -13 -14 -15 -15 -15 -15 -16 -16 -17 -18 -18 -18 -19 -19 -19 -20 -20 -21 -21 -22 -22 -22 -22 -22 -22 -23 -23 -23 -24 -24 -24 -24 -24 -24 -24 -24
-12 -13 -13 -13 -13 -13 -13 -14 -15 -15 -15 -16 -16 -16 -18 -18 -18 -18 -18 -19 -19 -20 -20 -20 -20 -21 -21 -22 -22 -22 -22 -22 -22 -23 -23 -23 -23 -23 -23 -23 -23 -23 -24
-13 -14 -13 -13 -13 -14 -15 -15 -15 -15 -16 -16 -16 -17 -17 -17 -18 -18 -18 -19 -20 -20 -20 -20 -20 -20 -21 -22 -22 -22 -22 -22 -22 -23 -23 -23 -23 -23 -23 -23 -23 -23 -23
-14 -13 -13 -14 -14 -15 -15 -15 -15 -16 -16 -16 -16 -17 -17 -17 -18 -18 -18 -19 -19 -20 -20 -20 -21 -20 -20 -21 -21 -22 -22 -22 -22 -22 -23 -23 -23 -23 -23 -23 -22 -22 -23
-14 -14 -14 -14 -15 -15 -15 -15 -16 -16 -16 -17 -17 -17 -17 -18 -18 -18 -18 -19 -19 -20 -20 -20 -20 -21 -21 -21 -21 -21 -22 -22 -22 -22 -23 -22 -22 -22 -22 -22 -22 -22 -21
-14 -14 -15 -15 -15 -16 -16 -16 -16 -16 -16 -16 -17 -17 -17 -17 -18 -18 -18 -19 -19 -19 -20 -20 -20 -21 -21 -21 -21 -21 -21 -21 -21 -22 -22 -22 -22 -22 -22 -21 -21 -21 -21
Height
825 826 826 826 827 826 827 827 827 827 827 826 826 825 825 825 825 826 827 827 825 826 824 823 822 821 821 819 819 819 817 815 811 804 801 795 789 782 777 774 767 762 756
825 826 825 826 827 828 828 828 828 827 827 827 827 826 826 826 827 826 828 830 827 826 825 823 822 822 821 820 819 818 817 816 813 804 799 794 789 781 775 768 763 758 752
824 825 825 826 827 828 829 829 829 828 828 828 828 827 826 826 827 828 828 830 829 827 826 825 825 823 824 823 822 820 817 813 811 805 798 793 787 780 770 766 759 752 749
823 825 826 826 828 829 830 830 830 830 829 830 830 828 828 828 827 827 828 830 830 828 826 825 825 825 826 824 823 820 817 812 809 806 799 791 786 779 773 764 752 750 742
821 823 825 827 828 829 830 830 831 831 831 831 831 831 831 829 828 828 828 828 831 830 828 827 827 826 826 826 824 819 816 812 809 804 799 793 786 778 774 768 759 748 740
819 821 824 826 828 830 831 832 832 832 833 833 835 837 835 832 830 828 828 830 830 830 829 828 829 826 825 825 823 820 817 814 810 808 801 797 791 787 780 774 766 755 742
817 820 822 825 827 828 830 832 833 832 833 835 835 836 838 836 832 829 828 832 831 831 831 830 830 828 823 823 820 817 816 813 811 809 803 799 793 788 782 774 767 759 750
816 819 822 824 826 828 829 831 833 833 834 836 838 838 837 837 835 830 832 832 831 830 829 830 831 827 824 820 819 817 813 809 807 805 803 798 794 788 783 777 768 757 746
814 818 821 825 827 828 830 831 833 835 835 836 838 838 837 839 836 834 833 832 832 831 830 829 829 827 824 822 818 814 809 807 805 802 799 795 791 786 781 771 764 757 745
814 815 820 824 827 830 832 833 834 836 837 839 837 838 840 839 838 835 833 832 831 830 830 829 828 827 824 821 816 813 810 809 803 799 795 790 787 782 778 774 768 761 756
812 815 818 823 826 828 832 833 834 837 837 837 838 840 840 839 838 838 836 833 830 830 829 827 825 825 823 820 817 815 813 808 803 798 793 788 784 780 775 770 766 762 755
811 815 818 820 824 826 828 835 835 836 836 837 837 839 839 839 839 838 837 836 832 829 827 826 826 825 822 819 817 816 812 806 801 797 792 786 780 775 770 766 762 758 752
811 814 817 819 823 826 829 829 835 835 837 838 837 838 839 838 839 839 838 834 832 827 826 826 826 824 821 818 817 815 810 805 801 796 792 787 782 775 768 762 756 750 743
810 814 816 818 820 826 827 830 832 834 835 836 835 837 838 839 839 837 834 832 828 827 827 826 825 823 821 819 816 812 809 806 802 798 794 788 782 774 767 761 752 744 736
809 813 816 819 819 824 826 829 831 832 833 833 834 836 837 838 837 836 834 831 829 828 827 826 824 822 820 817 815 812 809 806 802 798 794 788 782 776 769 762 756 748 742
807 810 813 816 819 822 825 827 831 832 833 834 835 836 836 837 835 834 833 831 831 828 827 825 824 822 820 818 815 812 809 806 803 798 794 789 784 778 771 764 759 752 744
804 807 811 814 818 820 822 824 826 830 832 833 834 834 834 834 833 833 832 830 829 827 827 826 824 822 820 818 816 813 809 806 803 798 794 790 785 779 772 765 760 755 746
803 806 809 813 816 818 821 822 825 826 827 828 829 830 829 830 831 830 830 828 828 826 826 825 824 822 819 816 814 811 808 804 801 797 793 789 784 779 773 767 762 757 751
801 805 809 812 814 817 819 821 823 824 825 825 826 827 827 828 829 828 826 826 826 825 825 824 822 819 817 814 812 809 806 802 799 795 791 787 783 779 773 769 763 758 752
801 804 807 810 813 815 817 818 819 820 822 822 823 824 825 825 826 826 826 824 823 822 822 821 819 816 814 811 809 806 803 800 796 793 789 786 782 779 774 769 764 759 753
799 803 806 809 810 813 815 816 817 818 819 820 821 821 822 822 823 823 823 822 821 820 819 817 815 813 811 808 805 802 800 797 794 790 787 784 781 777 774 769 764 759 753
798 801 804 806 809 810 811 814 815 815 816 817 818 818 818 818 818 819 818 818 817 815 814 812 810 808 806 804 801 798 795 793 790 787 784 781 779 776 772 768 763 758 752
796 799 801 803 805 807 808 810 811 812 813 813 813 814 814 813 813 813 814 813 812 811 809 807 805 803 801 799 797 794 791 789 787 784 781 778 776 773 770 766 762 758 753
793 795 798 800 801 803 804 805 807 808 808 808 808 808 808 809 808 807 807 807 806 806 804 802 800 798 796 794 792 790 787 785 783 781 779 776 773 771 768 765 761 757 753
788 791 793 795 796 798 800 801 802 803 803 803 803 803 803 804 803 802 801 801 800 799 798 797 795 793 791 788 786 784 782 780 778 777 775 773 771 768 766 763 759 755 751
783 786 788 791 792 793 794 795 796 796 796 797 797 797 797 797 797 796 795 794 793 793 792 791 789 788 785 783 781 779 777 775 774 772 771 769 767 764 762 760 756 753 748
Wind_Speed
8 8 7 7 7 7 8 9 10 11 12 11 12 13 14 14 13 13 13 13 14 13 12 13 13 13 13 15 12 10 10 12 9 18 21 29 29 31 32 32 35 33 39
10 9 9 8 8 7 8 9 10 12 11 12 13 14 15 15 15 15 14 12 13 13 12 13 14 11 12 14 14 16 13 14 15 19 24 24 28 33 31 35 30 34 38
12 11 10 9 9 9 9 10 11 12 13 13 13 14 16 15 13 13 13 11 13 13 13 13 14 14 17 17 15 14 14 14 16 19 22 24 25 28 34 31 31 34 32
13 11 10 9 9 9 10 11 11 12 13 14 14 16 16 15 13 12 12 11 11 12 12 11 14 15 14 16 14 17 16 18 17 17 19 22 23 27 26 31 37 34 39
16 13 12 10 10 10 11 12 12 12 13 14 14 15 15 17 14 10 10 11 9 10 11 10 12 15 13 15 14 16 17 16 17 17 20 22 24 30 29 33 35 39 38
17 15 13 12 12 12 12 12 12 13 13 13 14 14 16 16 13 14 10 9 9 8 9 10 9 13 14 15 13 15 12 16 16 18 17 20 22 26 28 30 31 30 10
18 16 15 14 14 14 14 13 12 11 12 12 13 14 15 14 14 13 11 8 9 8 9 11 9 12 17 17 15 15 13 14 12 17 17 20 24 26 28 29 28 30 27
18 17 16 16 15 15 14 12 11 11 11 10 9 9 13 14 13 14 9 8 8 9 8 10 11 14 18 18 14 14 16 15 18 18 19 21 22 24 22 25 26 31 31
19 17 16 14 14 14 13 12 12 10 10 10 8 9 11 13 13 14 9 8 8 9 8 10 13 14 16 16 13 16 23 20 23 19 19 19 18 19 21 26 25 26 23
18 17 16 15 14 12 11 11 10 10 10 9 9 8 7 10 12 13 10 8 8 9 7 9 12 14 15 17 16 19 22 21 24 25 24 22 20 20 19 18 22 22 22
18 18 17 15 14 13 12 12 11 12 12 11 9 7 7 8 10 11 12 9 7 8 8 10 14 15 14 16 15 17 17 19 22 24 26 26 27 26 26 26 21 21 23
19 19 18 17 16 15 14 11 12 12 13 11 9 7 8 7 9 10 11 9 8 10 10 12 12 13 13 14 15 16 17 19 23 26 28 28 30 30 30 28 25 22 22
21 21 20 17 15 14 15 14 12 12 11 9 7 7 7 8 9 7 9 10 9 12 10 9 9 10 10 13 14 15 19 23 25 27 26 28 29 30 32 31 32 30 32
23 22 20 19 18 15 14 12 11 12 11 9 8 6 6 6 8 9 12 12 11 12 9 9 7 8 10 12 16 18 20 22 23 24 26 28 30 33 34 35 33 35 30
23 21 19 19 18 16 13 12 11 9 7 8 8 6 6 7 8 6 9 11 12 10 9 8 10 13 14 16 18 18 19 21 23 24 26 28 29 30 30 32 29 30 27
24 22 21 20 18 17 17 15 9 9 7 6 5 3 3 2 5 6 8 8 7 7 9 10 11 13 14 16 18 19 19 21 21 22 24 25 27 29 29 30 27 27 27
25 24 22 20 19 20 19 19 18 10 7 5 4 3 1 3 5 5 6 5 5 8 7 8 9 11 12 13 14 16 18 19 18 19 21 23 26 28 29 28 25 25 28
22 22 21 20 19 18 17 17 15 14 14 11 6 2 1 2 3 3 4 7 8 8 7 7 8 9 10 12 14 16 17 18 18 18 20 22 24 26 28 28 26 25 26
22 21 20 18 16 14 14 14 12 10 8 7 6 6 6 5 2 3 7 10 10 8 8 7 8 9 10 13 14 15 16 17 16 17 18 21 22 25 27 27 27 27 26
20 20 19 17 16 15 14 12 10 8 8 7 7 6 7 7 7 8 10 11 11 10 10 11 10 11 12 13 14 15 16 15 15 16 18 20 20 22 24 26 27 24 25
22 20 18 17 16 13 11 10 9 9 9 10 9 9 9 11 12 13 14 13 12 11 11 12 12 12 12 13 14 15 16 15 15 16 18 19 19 22 23 24 26 27 27
20 19 18 16 14 13 12 11 11 12 12 12 11 11 9 14 16 17 16 14 13 13 13 14 13 12 13 14 15 16 17 16 16 16 18 17 18 21 22 23 25 28 29
20 18 17 15 14 13 13 14 14 15 15 15 14 14 14 15 16 16 16 14 14 14 13 15 15 14 12 13 14 15 17 16 16 16 18 16 19 20 21 23 25 27 28
19 18 17 16 16 16 16 17 17 17 17 18 17 17 18 17 17 16 16 15 16 16 15 15 16 16 15 15 15 15 15 15 15 15 13 16 19 20 20 22 25 27 29
20 20 20 20 19 20 19 19 20 19 20 20 21 20 19 19 19 18 17 16 17 18 17 16 17 17 16 16 16 16 15 14 15 14 12 16 19 19 20 22 24 27 29
22 22 22 21 22 22 22 22 22 22 22 22 22 22 21 21 21 20 18 18 19 19 19 17 17 17 17 17 16 16 15 15 16 15 14 17 19 19 21 23 25 26 28
Wind_Direction
170 163 154 144 140 136 128 120 118 119 119 113 103 98 92 88 92 95 83 85 81 73 67 57 55 45 34 31 25 3 347 339 305 311 317 324 326 331 332 333 339 331 332
182 177 165 155 147 136 130 128 130 124 120 117 108 99 88 84 88 87 80 71 76 71 66 58 52 45 38 20 16 7 353 342 326 315 318 323 326 333 331 331 331 334 333
189 182 168 160 156 147 138 134 132 129 124 119 110 97 86 80 88 84 82 75 69 68 64 55 45 45 30 17 9 360 348 339 326 318 316 323 324 334 333 333 333 332 329
188 181 171 163 158 150 143 137 134 133 132 124 109 95 81 68 75 85 77 72 70 66 62 58 44 42 23 10 2 354 347 343 338 330 322 325 330 335 336 336 333 332 328
187 180 174 167 159 151 145 142 138 135 131 126 113 99 84 71 61 72 72 69 58 54 49 58 40 33 25 11 1 354 349 349 342 337 331 332 336 341 342 332 325 326 326
188 180 173 167 160 155 148 145 139 128 123 118 106 93 82 67 60 60 70 61 57 50 43 40 34 24 20 6 359 356 359 352 345 339 334 330 328 329 329 327 320 323 325
183 178 175 172 166 160 153 148 140 129 127 121 115 102 80 62 53 53 65 64 57 52 39 31 26 14 14 3 352 356 356 357 356 341 332 329 323 326 326 324 321 316 309
179 179 178 175 170 164 159 149 139 131 120 113 111 108 87 60 45 45 56 67 56 55 48 33 22 11 12 5 354 355 353 358 352 347 335 327 325 325 326 322 318 313 313
178 177 177 176 167 163 155 147 144 138 128 120 112 106 91 63 46 38 48 54 50 46 45 36 29 18 11 4 4 3 358 355 349 348 345 338 338 338 339 335 337 334 330
175 169 169 170 166 162 157 148 144 139 128 125 101 93 97 75 46 39 33 45 42 38 36 30 31 19 13 12 10 7 0 347 346 351 0 1 357 352 348 347 335 329 329
170 167 163 165 162 158 153 149 148 150 139 131 114 106 96 81 53 40 35 42 33 35 31 26 26 15 15 18 15 12 359 342 358 0 1 2 358 357 354 351 342 330 318
168 163 161 157 157 153 152 156 156 149 149 141 124 105 90 83 52 41 35 41 37 37 32 26 20 15 16 20 16 7 3 4 6 6 5 358 352 349 347 344 340 334 321
165 160 159 154 154 157 161 156 160 160 157 148 130 107 93 66 55 40 36 37 45 29 30 29 23 22 16 14 17 10 12 13 10 7 360 354 352 348 348 347 348 344 341
165 165 162 160 155 164 164 165 167 164 155 144 126 112 112 84 57 34 21 18 16 13 22 21 26 27 27 19 19 19 17 14 11 6 360 358 357 356 354 355 344 344 342
167 164 162 163 160 164 164 163 156 144 148 134 126 117 125 67 37 22 15 26 13 9 10 7 15 19 16 14 14 15 13 10 7 5 3 0 357 354 350 357 347 344 342
165 166 170 170 171 168 159 144 137 135 134 116 145 78 63 35 14 21 17 18 17 10 359 13 20 19 16 9 5 1 8 5 2 360 1 1 357 353 346 352 348 348 342
174 176 174 175 175 173 171 169 157 154 163 154 149 160 81 27 14 12 5 351 22 344 359 9 7 1 357 355 353 355 352 355 355 357 357 357 357 357 357 350 345 346 343
184 179 178 181 182 182 188 194 200 198 193 204 210 173 266 31 0 350 336 326 314 321 337 342 343 339 337 340 343 342 346 349 352 354 354 355 356 354 355 351 344 341 339
180 180 183 183 185 187 188 192 197 202 208 217 226 243 248 252 282 276 291 306 307 311 313 314 319 324 327 329 332 333 337 342 345 347 351 353 354 353 351 351 347 340 339
182 184 185 187 187 190 194 201 208 216 225 236 245 251 255 254 269 281 297 290 291 295 300 304 310 314 317 320 322 324 327 334 341 344 347 349 349 350 347 345 348 335 335
185 185 188 192 198 202 211 219 227 235 245 254 258 253 260 271 284 282 289 281 280 284 289 294 301 306 310 312 314 316 319 327 335 336 339 342 344 343 345 343 344 344 337
191 194 196 201 205 213 220 228 237 246 251 257 260 259 252 254 264 274 277 274 276 282 286 290 295 298 304 307 309 311 314 320 326 330 333 336 338 341 342 340 341 344 343
197 200 204 211 217 223 228 236 245 251 256 262 264 265 262 263 264 268 272 275 275 277 279 282 290 294 297 299 299 301 305 312 317 322 325 329 333 336 336 334 335 337 338
205 211 216 222 226 232 238 244 250 255 260 264 266 267 268 269 270 272 274 276 275 278 279 280 284 291 297 299 299 298 298 301 304 313 313 317 322 327 326 327 329 331 332
212 218 223 227 232 238 245 249 252 256 261 264 267 269 271 274 273 273 275 275 277 278 280 280 281 283 290 295 298 298 297 294 298 308 309 313 313 317 316 318 321 325 329
221 226 231 235 239 243 246 251 255 260 263 266 269 271 272 273 274 275 276 275 276 277 279 280 280 281 285 291 295 296 295 292 294 309 313 308 308 308 309 312 317 321 324